This is the latest recevied weather packets stored in our database for station/object DC4AT. If no packets are shown the sender has not sent any weather packets the latest 10 day(s).
| Time | Temp. | Humidity | Pressure | Rain* | Wind** | Luminosity | Snow |
|---|---|---|---|---|---|---|---|
| 1777859618 | 12.78° C | 76% | 1012.5 hPa | 0 mm | - | 0 W/m² | - |
| 1777859018 | 12.22° C | 77% | 1012.5 hPa | 0 mm | - | 0 W/m² | - |
| 1777858418 | 12.22° C | 76% | 1012.4 hPa | 0 mm | - | 0 W/m² | - |
| 1777857818 | 12.22° C | 76% | 1012.2 hPa | 0 mm | - | 0 W/m² | - |
| 1777857218 | 12.78° C | 74% | 1012.1 hPa | 0 mm | - | 0 W/m² | - |
| 1777856618 | 13.33° C | 73% | 1012.1 hPa | 0 mm | - | 0 W/m² | - |
| 1777856018 | 13.33° C | 72% | 1012.5 hPa | 0 mm | - | 0 W/m² | - |
| 1777855418 | 13.33° C | 72% | 1012.4 hPa | 0 mm | - | 0 W/m² | - |
| 1777854818 | 13.33° C | 72% | 1012.2 hPa | 0 mm | - | 0 W/m² | - |
| 1777854218 | 13.89° C | 72% | 1012.1 hPa | 0 mm | - | 0 W/m² | - |
| 1777853618 | 13.89° C | 72% | 1012.1 hPa | 0 mm | - | 0 W/m² | - |
| 1777853018 | 14.44° C | 72% | 1012.1 hPa | 0 mm | - | 0 W/m² | - |
| 1777852418 | 14.44° C | 72% | 1012.1 hPa | 0 mm | - | 0 W/m² | - |
| 1777851818 | 14.44° C | 72% | 1012.1 hPa | 0 mm | - | 0 W/m² | - |
| 1777851218 | 14.44° C | 71% | 1012.2 hPa | 0 mm | - | 0 W/m² | - |
| 1777850618 | 15° C | 69% | 1012.2 hPa | 0 mm | - | 0 W/m² | - |
| 1777850018 | 15.56° C | 67% | 1012.3 hPa | 0 mm | - | 0 W/m² | - |
| 1777849418 | 15.56° C | 67% | 1012.4 hPa | 0 mm | - | 0 W/m² | - |
| 1777848818 | 16.11° C | 64% | 1012.3 hPa | 0 mm | - | 0 W/m² | - |
| 1777848218 | 16.67° C | 62% | 1012.3 hPa | 0 mm | - | 0 W/m² | - |
| 1777847618 | 16.67° C | 61% | 1012.4 hPa | 0 mm | - | 0 W/m² | - |
| 1777847018 | 16.67° C | 60% | 1012.5 hPa | 0 mm | - | 0 W/m² | - |
| 1777846418 | 17.22° C | 58% | 1012.5 hPa | 0 mm | - | 0 W/m² | - |
| 1777845818 | 17.22° C | 57% | 1012.6 hPa | 0 mm | - | 0 W/m² | - |
| 1777845218 | 17.22° C | 56% | 1012.7 hPa | 0 mm | - | 0 W/m² | - |
* Rain latest hour (hover to see other rain measurements)
** Current wind speed in m/s (hover to see current wind gust speed)